STARLINK-3060, 49155

Orbit data source: Space-Track

STARLINK-3060, 49155 is a payload satellite owned by SpaceX/Seattle (US) in LEO that was launched on Tue, 14 Sep 2021 UTC via an FALCON 9 launch vehicle from the Air Force Western Test Range (AFWTR). Payload-class satellites include a variety of spacecraft equipped with specific instruments for various scientific and technological missions. These include communications satellites like Starlink; space stations such as the ISS; scientific satellites like the Hubble; Earth observation satellites from companies like Planet Labs, Umbra, and HawkEye 360; GPS; miniature CubeSats for education and research; and military/defense satellites.

Loading next visibility...
Identifier
49155, 2021-082AB
Orbit
LEO
Country
Flag of USUS
Related business
Manufacturer
SpaceX/Seattle
Mission
Operational Commercial Communications
Bus & Motor
STARLINK, Unknown motor
Mass
297 kg wet, ~275 kg dry
Launch date (UTC)
2021-09-14 (4 years ago)
Launch vehicle
FALCON 9
Launch site
Air Force Western Test Range (AFWTR)
Object type
Payload
Rocket body
Debris
Shape & HBR
Box + 1 Pan, 10.1 m
Radar Cross Section
13.562 m², Large (>1 m²)

Expand to show TLE details & history
Last TLE update: 19 hours ago

TLE from 19 hours ago
0 STARLINK-3060
1 49155U 21082AB  25310.12410092  .00003240  00000-0  27926-3 0  9995
2 49155  69.9995 205.9986 0002473 276.5152  83.5726 14.98323312229534
Epoch: 2025-11-06T02:58Z
TLE epoch observation values (Epoch: 2025-11-06T02:58:42.319Z)
Latitude
0.00003°
Longitude
115.73536°
Altitude
574.308 km
Speed
7.574 km/s
True Right ascension
13h 43m 59s
True Declination
0° 00' 00"
Sunlit
Object was in daylight at epoch
Visualization orbit readout
Latitude
Unknown
Longitude
Unknown
Altitude
Unknown
Speed
Unknown
Apparent Right ascension
Unknown
Apparent Declination
Unknown
Sunlit
N/A
Visualization observer readout
Local Sidereal Time
17:48:00
Azimuth
Unknown
Elevation
Unknown
Doppler factor
Unknown
Orbital elements
Apogee altitude
571.743 km
Perigee altitude
568.307 km
Semi-major axis
6,948.162 km
Eccentricity
0.00025
Inclination
69.9995°
RAAN
205.9986°
Arg. of periapsis
276.5152°
True anomaly
83.60076°
Mean anomaly
83.5726°
Eccentric anomaly
83.58668°
Mean motion
3.74747 °/min
Orbital period
96.06 mins
BSTAR
0.00027926
Loading maneuver chart data...
Computing Atmospheric mass density...
Loading historical data...
Loading historical data...
Loading historical data...
Loading historical data...
Loading historical data...
Loading historical data...
Loading historical data...

Documentation

Showing up to 5 results
|